Location: Huntsville
(41.2590°N, 111.7678°W)
Time: 07:02:07
(UTC+00:00)

Vanguard 3 - Pass Details

Date: 14 June 2021
Orbit: 508 x 3261 km, 33.4° (Epoch: 29 July)

Event Time Altitude Azimuth Distance (km) Brightness Sun altitude
Rises 21:29:43 0° 269° (W) 4,177 11.2 58.8°
Reaches altitude 10° 21:32:33 10° 258° (WSW) 3,540 11.1 58.3°
Maximum altitude 21:40:30 30° 201° (SSW) 3,099 11.0 57.0°
Drops below altitude 10° 21:52:38 10° 149° (SSE) 5,470 11.4 54.8°
Sets 21:58:26 0° 141° (SE) 6,837 11.7 53.8°
